[[{"header":{"parameterUnit":"m.s-1","parameterCategory":1,"la1":30.2991,"la2":30.254,"lo1":-89.0895,"lo2":-89.0444,"dy":0.0017,"dx":0.0017,"nx":28,"ny":28,"refTime":"2024-06-03T03:00:00:Z","depth":0,"parameterNumber":2,"parameterNumberName":"U-component_of_WINDS"},"data":[0,0,0,0,0,0,0,0,0,0,0,0,0,0,0,0,0,0,0,0,0,0,0,0,0,0,0,0,0,0,0,0,0,0,0,0,0,0,0,0,0,0,0,0,0,0,0,0,0,0,0,0,0,0,0,0,0,0,-1.5124,-1.5126,0,-1.5251,-1.5253,-1.5254,-1.5298,-1.5298,-1.5297,-1.5297,-1.543,-1.5434,-1.5437,0,0,0,0,0,0,0,0,0,0,0,0,0,-1.4923,-1.4926,-1.5124,-1.5126,-1.5127,-1.5251,-1.5253,-1.5255,-1.5298,-1.5298,-1.5297,-1.5296,-1.5428,-1.5433,-1.5438,0,0,0,0,0,0,0,0,0,0,0,0,0,-1.5026,-1.4928,-1.5124,-1.5164,-1.5169,-1.5251,-1.5253,-1.5255,-1.5298,-1.5298,-1.5297,-1.5296,-1.5427,-1.5433,-1.5439,-1.5491,0,0,-1.5457,-1.546,0,0,0,0,0,0,0,0,-1.502,-1.5034,-1.5157,-1.5161,-1.5167,-1.5258,-1.5231,-1.5334,-1.5298,-1.5249,-1.5297,-1.5296,-1.5373,-1.5384,-1.5409,-1.5497,-1.5503,-1.5457,-1.5461,-1.5464,-1.5465,0,0,0,0,0,0,0,-1.5013,-1.5028,-1.5175,-1.5158,-1.5165,-1.5177,-1.5191,-1.5251,-1.5314,-1.5253,-1.5257,-1.5271,-1.5376,-1.5403,-1.5413,-1.5505,-1.5457,-1.5463,-1.5466,-1.5469,-1.5642,-1.5643,0,0,0,0,0,0,-1.4999,-1.5022,-1.5171,-1.5178,-1.509,-1.5181,-1.5196,-1.523,-1.5314,-1.5326,-1.5272,-1.5273,-1.5393,-1.5406,-1.5418,-1.5484,-1.5464,-1.5469,-1.5473,-1.5641,-1.5643,-1.5644,0,0,0,0,0,0,-1.4994,-1.5012,-1.5166,-1.5101,-1.5122,-1.5185,-1.5222,-1.5233,-1.526,-1.5327,-1.5339,-1.5288,-1.5393,-1.5409,-1.5472,-1.549,-1.5472,-1.5477,-1.564,-1.5642,-1.5643,-1.5618,0,0,0,0,0,0,-1.4988,-1.501,-1.5029,-1.5101,-1.5125,-1.5217,-1.5223,-1.5236,-1.527,-1.5272,-1.5345,-1.5357,-1.5394,-1.5463,-1.5478,-1.5498,-1.5482,-1.5639,-1.5641,-1.5643,-1.5618,-1.5618,-1.5619,0,0,0,0,0,-1.4981,-1.5018,-1.503,-1.5048,-1.5151,-1.5218,-1.5231,-1.5272,-1.5271,-1.5292,-1.5335,-1.5355,-1.5485,-1.5469,-1.5487,-1.5508,-1.5638,-1.564,-1.5643,-1.5617,-1.5618,-1.5619,0,0,0,0,0,0,-1.4947,-1.5028,-1.5043,-1.5104,-1.5153,-1.5225,-1.5252,-1.5272,-1.5324,-1.5325,-1.5375,-1.5391,-1.545,-1.5486,-1.5466,-1.5563,-1.5563,-1.5569,-1.5538,-1.5539,-1.554,-1.553,-1.5487,0,0,0,0,0,-1.4947,-1.4993,-1.5062,-1.5109,-1.5133,-1.5188,-1.5219,-1.5246,-1.53,-1.5322,-1.537,-1.5423,-1.5476,-1.551,-1.5562,-1.5623,-1.564,-1.5647,-1.5648,-1.5648,-1.5652,-1.5688,-1.5691,-1.5651,-1.5651,-1.5651,0,0,-1.4946,-1.4996,-1.5023,-1.5104,-1.5145,-1.5193,-1.5206,-1.5256,-1.5293,-1.533,-1.5392,-1.5429,-1.5492,-1.5554,-1.5584,-1.5585,-1.5667,-1.5651,-1.5651,-1.5655,-1.569,-1.5694,-1.5697,-1.5653,-1.5652,-1.5652,0,0,-1.497,-1.5012,-1.5056,-1.5098,-1.5161,-1.5197,-1.5208,-1.5277,-1.5303,-1.5365,-1.5395,-1.5439,-1.553,-1.5573,-1.5606,-1.5647,-1.5667,-1.5663,-1.5667,-1.5701,-1.5704,-1.5707,-1.5722,-1.5726,-1.5667,-1.5667,-1.5667,0,-1.4962,-1.5035,-1.5077,-1.5126,-1.5161,-1.5196,-1.5241,-1.528,-1.5357,-1.5381,-1.5382,-1.5496,-1.554,-1.5613,-1.5623,-1.5649,-1.5663,-1.5654,-1.57,-1.5704,-1.5707,-1.5721,-1.5727,-1.5666,-1.5666,-1.5666,-1.5667,0,-1.5022,-1.5072,-1.51,-1.5172,-1.5211,-1.5257,-1.5308,-1.5342,-1.5366,-1.5403,-1.5467,-1.5521,-1.5585,-1.5605,-1.563,-1.5682,-1.5681,-1.569,-1.5691,-1.5709,-1.5724,-1.5729,-1.5665,-1.5665,-1.5665,-1.5666,0,0,-1.5027,-1.5122,-1.5132,-1.5165,-1.5237,-1.5277,-1.5327,-1.5388,-1.5416,-1.5469,-1.5512,-1.5587,-1.5596,-1.5635,-1.5665,-1.5694,-1.5723,-1.57,-1.5702,-1.5702,-1.5784,-1.5776,-1.5782,-1.5737,-1.5738,-1.5739,-1.5779,0,-1.506,-1.5148,-1.5188,-1.5258,-1.5305,-1.5339,-1.5382,-1.5432,-1.5467,-1.5513,-1.5554,-1.5606,-1.5614,-1.5638,-1.5669,-1.5713,-1.574,-1.5711,-1.5778,-1.5779,-1.576,-1.5789,-1.5781,-1.5816,-1.5785,-1.5786,-1.5786,0,-1.5111,-1.5162,-1.5236,-1.5302,-1.5324,-1.5361,-1.5421,-1.5465,-1.5522,-1.5546,-1.5588,-1.5617,-1.5671,-1.5668,-1.5743,-1.5722,-1.5753,-1.5778,-1.5781,-1.5788,-1.5783,-1.5797,-1.5828,-1.5833,-1.5796,-1.5795,-1.5794,0,-1.5107,-1.5195,-1.525,-1.5278,-1.5357,-1.5383,-1.5417,-1.5473,-1.5508,-1.5561,-1.5584,-1.5643,-1.5675,-1.5721,-1.5765,-1.5759,-1.5836,-1.5837,-1.5858,-1.5857,-1.5873,-1.5871,-1.5908,-1.5893,-1.5892,-1.5892,-1.5892,0,-1.5139,-1.5184,-1.525,-1.5284,-1.5335,-1.5381,-1.543,-1.5467,-1.5517,-1.556,-1.5595,-1.5634,-1.569,-1.5738,-1.5773,-1.583,-1.5845,-1.5866,-1.5875,-1.5863,-1.586,-1.5883,-1.5881,-1.5894,-1.5893,-1.5893,-1.5893,0,-1.5144,-1.519,-1.5253,-1.5322,-1.5341,-1.5375,-1.5435,-1.5471,-1.5508,-1.5562,-1.5578,-1.5637,-1.5694,-1.5743,-1.5819,-1.5843,-1.5902,-1.5912,-1.5882,-1.5886,-1.5905,-1.5902,-1.5958,-1.5967,-1.5945,-1.5945,-1.5945,0,-1.5161,-1.5196,-1.5269,-1.5299,-1.5333,-1.5382,-1.5417,-1.5464,-1.55,-1.5568,-1.5595,-1.5655,-1.5705,-1.5795,-1.5846,-1.5904,-1.5916,-1.5932,-1.5925,-1.5912,-1.5916,-1.5913,-1.5917,-1.5932,-1.5932,-1.5932,-1.5932,0,-1.5188,-1.5209,-1.5257,-1.5314,-1.5355,-1.5403,-1.5451,-1.5475,-1.5531,-1.557,-1.5628,-1.5667,-1.5744,-1.5803,-1.5867,-1.5904,-1.5927,-1.5933,-1.5941,-1.5929,-1.591,-1.592,-1.5882,-1.5932,-1.5932,-1.5932,-1.5932,-1.5932,-1.5199,-1.5232,-1.5288,-1.5341,-1.5382,-1.5427,-1.5463,-1.5505,-1.5554,-1.562,-1.5645,-1.5705,-1.5762,-1.585,-1.5887,-1.5935,-1.5939,-1.595,-1.5953,-1.5955,-1.5953,-1.5902,-1.5947,-1.5947,-1.5947,-1.5947,-1.5947,0,-1.5227,-1.5265,-1.5313,-1.538,-1.5422,-1.544,-1.5494,-1.5529,-1.5581,-1.5631,-1.568,-1.5747,-1.5805,-1.586,-1.592,-1.5948,-1.5961,-1.5962,-1.5961,-1.5969,-1.5947,-1.5934,-1.5951,-1.5951,-1.5951,-1.5951,-1.5951,-1.5951,-1.5246,-1.5302,-1.533,-1.5406,-1.5445,-1.5502,-1.5532,-1.5574,-1.5614,-1.5687,-1.5735,-1.577,-1.5823,-1.5887,-1.5941,-1.5956,-1.5977,-1.5976,-1.5993,-1.5971,-1.597,-1.5969,-1.5957,-1.598,-1.598,-1.6011,-1.6012,-1.6012]},{"header":{"parameterUnit":"m.s-1","parameterCategory":1,"la1":30.2991,"la2":30.254,"lo1":-89.0895,"lo2":-89.0444,"dy":0.0017,"dx":0.0017,"nx":28,"ny":28,"refTime":"2024-06-03T03:00:00:Z","depth":0,"parameterNumber":3,"parameterNumberName":"V-component_of_WINDS"},"data":[0,0,0,0,0,0,0,0,0,0,0,0,0,0,0,0,0,0,0,0,0,0,0,0,0,0,0,0,0,0,0,0,0,0,0,0,0,0,0,0,0,0,0,0,0,0,0,0,0,0,0,0,0,0,0,0,0,0,3.773,3.773,0,3.7777,3.7777,3.7778,3.7712,3.771,3.7707,3.7705,3.775,3.7754,3.7757,0,0,0,0,0,0,0,0,0,0,0,0,0,3.7579,3.7582,3.773,3.7731,3.7731,3.7777,3.7777,3.7778,3.7712,3.771,3.7707,3.7704,3.7749,3.7753,3.7757,0,0,0,0,0,0,0,0,0,0,0,0,0,3.7637,3.7583,3.773,3.7704,3.7702,3.7777,3.7777,3.7778,3.7713,3.771,3.7706,3.7703,3.7748,3.7753,3.7758,3.7859,0,0,3.7773,3.7776,0,0,0,0,0,0,0,0,3.7634,3.7643,3.7707,3.7706,3.7704,3.7735,3.7741,3.7805,3.7714,3.7709,3.7705,3.7701,3.7748,3.7753,3.7769,3.7861,3.7863,3.7774,3.7777,3.7779,3.778,0,0,0,0,0,0,0,3.763,3.764,3.7748,3.7708,3.7706,3.7689,3.7693,3.7753,3.7747,3.7709,3.7704,3.7711,3.7746,3.7764,3.777,3.7864,3.7774,3.7778,3.7781,3.7783,3.8038,3.8041,0,0,0,0,0,0,3.763,3.7638,3.7747,3.775,3.766,3.7694,3.7699,3.7729,3.7747,3.7746,3.7714,3.7708,3.7758,3.7764,3.7771,3.7888,3.7779,3.7784,3.7787,3.8034,3.8038,3.8042,0,0,0,0,0,0,3.7627,3.764,3.7745,3.7692,3.7704,3.7701,3.7734,3.7731,3.7749,3.775,3.7749,3.7734,3.7755,3.7764,3.7837,3.7889,3.7786,3.7791,3.803,3.8035,3.804,3.8125,0,0,0,0,0,0,3.7623,3.7639,3.7679,3.7694,3.7708,3.7812,3.7737,3.7735,3.7759,3.7751,3.7768,3.7768,3.7753,3.783,3.7842,3.7894,3.7795,3.8025,3.8032,3.8039,3.8117,3.8132,3.8145,0,0,0,0,0,3.7618,3.7701,3.7681,3.7695,3.7757,3.7815,3.7823,3.7805,3.7763,3.7802,3.7802,3.7767,3.7882,3.7838,3.7851,3.7905,3.8021,3.803,3.8038,3.8111,3.8129,3.8145,0,0,0,0,0,0,3.7692,3.7702,3.7681,3.7772,3.7793,3.7804,3.7852,3.7825,3.7858,3.7849,3.7825,3.7829,3.7907,3.7914,3.7865,3.8002,3.7944,3.7956,3.7995,3.8013,3.8027,3.8022,3.7799,0,0,0,0,0,3.7719,3.7766,3.7772,3.7852,3.7864,3.7856,3.7881,3.7865,3.7886,3.7894,3.79,3.792,3.796,3.7987,3.8024,3.8118,3.8119,3.8162,3.8176,3.8188,3.8197,3.8244,3.8262,3.807,3.807,3.807,0,0,3.7775,3.7786,3.7818,3.7867,3.7882,3.7929,3.7864,3.7918,3.7952,3.7902,3.7971,3.7976,3.7997,3.808,3.8117,3.8088,3.8251,3.8198,3.8208,3.8211,3.8254,3.8273,3.8289,3.8076,3.8075,3.8074,0,0,3.79,3.7916,3.7982,3.7998,3.8021,3.8015,3.8031,3.8046,3.8047,3.8116,3.8078,3.8119,3.8189,3.8205,3.8222,3.8352,3.832,3.8365,3.8438,3.8484,3.8499,3.8512,3.8556,3.8572,3.8375,3.8375,3.8375,0,3.7967,3.8038,3.8019,3.8075,3.8097,3.8054,3.8119,3.8136,3.8169,3.8184,3.8152,3.8238,3.8249,3.8334,3.8365,3.8382,3.8397,3.8362,3.8499,3.8512,3.8524,3.8565,3.8582,3.838,3.838,3.8379,3.8379,0,3.8117,3.8167,3.8218,3.8252,3.8279,3.834,3.8328,3.8358,3.834,3.8337,3.8406,3.8418,3.8456,3.8476,3.8459,3.8557,3.8538,3.8503,3.8444,3.8548,3.8586,3.8602,3.8388,3.8386,3.8384,3.8383,0,0,3.829,3.8312,3.8331,3.8344,3.8366,3.8403,3.8461,3.8498,3.8523,3.8548,3.8594,3.8654,3.8621,3.8641,3.8625,3.8666,3.8765,3.8625,3.8625,3.8648,3.8871,3.8895,3.8914,3.8745,3.8748,3.875,3.8868,0,3.8414,3.8514,3.8498,3.8594,3.8638,3.8598,3.8648,3.8665,3.8664,3.8701,3.8699,3.8741,3.8695,3.8706,3.8745,3.8744,3.8808,3.8736,3.8785,3.8787,3.8778,3.8935,3.8961,3.9072,3.8883,3.8886,3.8888,0,3.8571,3.8601,3.8702,3.8714,3.8732,3.8778,3.8809,3.8845,3.8864,3.886,3.8881,3.8857,3.8913,3.8855,3.8929,3.888,3.8899,3.8902,3.8905,3.8907,3.8842,3.8938,3.9107,3.9123,3.8912,3.891,3.8908,0,3.8683,3.8749,3.8817,3.8831,3.8848,3.888,3.8888,3.8904,3.8926,3.8954,3.8968,3.9002,3.9019,3.9045,3.903,3.899,3.9107,3.9048,3.9103,3.9103,3.9127,3.9125,3.9299,3.9144,3.9144,3.9144,3.9143,0,3.8821,3.8884,3.8868,3.8909,3.8977,3.8958,3.9025,3.9029,3.9042,3.9082,3.905,3.9088,3.9067,3.9104,3.9093,3.9154,3.9163,3.916,3.9156,3.9161,3.9161,3.9172,3.9163,3.9148,3.9147,3.9146,3.9146,0,3.8957,3.895,3.9021,3.9031,3.9035,3.9084,3.9092,3.913,3.9126,3.9177,3.9188,3.9182,3.9222,3.9211,3.9255,3.9247,3.9325,3.9312,3.9319,3.9314,3.9369,3.9363,3.9553,3.9576,3.9409,3.9411,3.9412,0,3.9045,3.9092,3.9107,3.9131,3.9142,3.9183,3.9206,3.9188,3.9213,3.9236,3.9271,3.9309,3.9338,3.9404,3.9403,3.9436,3.9422,3.9486,3.9427,3.943,3.9419,3.9416,3.9419,3.9498,3.9499,3.9501,3.9502,0,3.9199,3.9193,3.9227,3.926,3.9288,3.9313,3.9335,3.9357,3.934,3.937,3.9411,3.9434,3.9478,3.9515,3.9545,3.9552,3.9524,3.9522,3.9535,3.954,3.9541,3.9538,3.9348,3.9517,3.9515,3.9514,3.9513,3.9513,3.9312,3.935,3.9366,3.9405,3.942,3.9441,3.9476,3.9476,3.9511,3.9546,3.9533,3.958,3.9595,3.9632,3.9643,3.9678,3.9653,3.9674,3.9679,3.9684,3.9689,3.9538,3.9684,3.9683,3.9683,3.9683,3.9682,0,3.9462,3.947,3.9506,3.9537,3.9567,3.954,3.9562,3.9588,3.963,3.9647,3.9676,3.9722,3.9758,3.9759,3.9792,3.9819,3.9807,3.9828,3.9825,3.9826,3.9711,3.9694,3.9838,3.9838,3.9837,3.9837,3.9837,3.9837,3.9544,3.9607,3.9602,3.9671,3.9678,3.9724,3.9739,3.9757,3.977,3.9823,3.9853,3.9854,3.9863,3.9896,3.9927,3.9926,3.9939,3.9964,3.9958,3.985,3.9835,3.982,3.9804,3.9968,3.9968,4.007,4.0071,4.0072]}]]